Tracking 20621 objects as of 1-Apr-2020
HD Live streaming from Space Station
objects crossing your sky now

SCOUT B-1 DEB

Track SCOUT B-1 DEB now!
10-day predictions


NORAD ID: 8867
Int'l Code: 1976-047C
Perigee: 1,000.4 km
Apogee: 1,109.9 km
Inclination: 99.4 °
Period: 106.1 minutes
Semi major axis: 7426 km
RCS: 0.05 m2 (small)
Launch date: May 22, 1976
Source: United States (US)
Launch site: AIR FORCE WESTERN TEST RANGE (AFWTR)

Note: This is SATELLITE DEBRIS
aabbcc
Your satellite tracking list
Your tracking list is empty




NASA's NSSDC Master Catalog

Two Line Element Set (TLE):
1  8867U 76047C   20090.74245814 -.00000004  00000-0  54197-4 0  9994
2  8867  99.4070   8.5062 0073727 303.8489  83.8825 13.56614293168359
Source of the keplerian elements: AFSPC